STARLINK-3998

operational
NORAD ID: 52610 Int'l Des: 2022-052 Owner: SPXS Country: US Constellation: starlink
LEOCIRCULAR

About STARLINK-3998

Description loading...

Live Position

Loading 3D Globe...

Upcoming Passes

Altitude History

Altitude vs Time

uPlot chart will show altitude changes over time

Two-Line Element Set

1 52610U 22052N 25251.06274899 -.00002207 00000-0 -12062-3 0 9992
2 52610 53.2194 23.9675 0001209 92.8833 267.2297 15.08840928183212
Epoch: Sep 8, 2025 • Age: 14 hours

Current Status

Altitude 549.5 km
Velocity 7.59 km/s
Sub-Earth Point -30.10°S, 133.19°E
Launch Date May 14, 2022
Age 3.3 years
Type internet

Technical Details

Classification Payload
Mass 297.00 kg
Dry Mass 275.00 kg
Total Mass 297.00 kg
Length 0.20 m
Diameter 2.80 m
Span 9.00 m
Shape Box + pan
Manufacturer SPXS
Bus Type Starlink
Phase Status In Orbit
Owner/State SPXS/US

Large Constellations

Loading constellations...